This demonstration page uses our WeatherBlox Daily Observations layout. Learn more.

Left ArrowRight Arrow

39.01783, -85.05884

Hourly Observations for August 3, 2015

Temp ( °F °C ) Dew Point ( °F °C ) Humidity (%) Winds ( mph kmh ) Pressure ( in mb ) Visibility ( mi km ) Precip ( " mm )
12:52 am 00:52 Clear 70 21.1 62 16.7 76 76 SSW 7 11 29.85 1011 10 16.0934 N/A
1:52 am 01:52 Clear 70 21.1 61 16.1 73 73 SSW 6 9 29.85 1011 10 16.0934 N/A
2:52 am 02:52 Partly Cloudy 67 19.4 61 16.1 81 81 SSW 6 9 29.84 1011 10 16.0934 N/A
3:52 am 03:52 Partly Cloudy 67 19.4 61 16.1 81 81 SSW 7 11 29.83 1010 10 16.0934 N/A
4:52 am 04:52 Partly Cloudy 69 20.6 61 16.1 76 76 SSW 8 13 29.83 1010 10 16.0934 N/A
5:30 am 05:30 Mostly Cloudy 70 21 63 17 78 78 NE 18 30 29.88 1012 10 16.0934 N/A
5:43 am 05:43 Cloudy with Thunderstorms 72 22 57 14 61 61 NE 37 59 29.88 1012 10 16.0934 N/A
5:52 am 05:52 Windy with Storms Likely 69 20.6 58 14.4 68 68 NE 25 41 29.92 1013 10 16.0934 N/A
6:11 am 06:11 Cloudy with Heavy Thunderstorms 64 18 61 16 88 88 NE 23 37 29.94 1014 2 3.21868 0.04 1.016
6:31 am 06:31 Cloudy with Heavy Thunderstorms 63 17 63 17 100 100 NE 16 26 29.97 1015 1.5 2.41401 0.29 7.366
6:43 am 06:43 Cloudy with Heavy Thunderstorms 63 17 63 17 100 100 E 17 28 29.97 1015 2 3.21868 0.51 12.954
6:52 am 06:52 Cloudy with Thunderstorms 63 17.2 63 17.2 100 100 E 13 20 29.94 1014 3 4.82802 0.56 14.224
7:15 am 07:15 Cloudy with Light Thunderstorms 63 17 63 17 100 100 ESE 16 26 29.94 1014 7 11.26538 0.04 1.016
7:43 am 07:43 Mostly Cloudy with Light Rain 63 17 63 17 100 100 ESE 18 30 29.88 1012 8 12.87472 0.06 1.524
7:52 am 07:52 Mostly Cloudy 64 17.8 63 17.2 96 96 ESE 10 17 29.89 1012 10 16.0934 0.06 1.524
8:52 am 08:52 Mostly Cloudy 65 18.3 65 18.3 100 100 S 8 13 29.87 1012 10 16.0934 N/A
9:52 am 09:52 Mostly Sunny 70 21.1 64 17.8 82 82 S 10 17 29.87 1011 10 16.0934 N/A
11:52 am 11:52 Sunny 78 25.6 64 17.8 62 62 S 18 30 29.86 1011 10 16.0934 N/A
12:52 pm 12:52 Mostly Sunny 80 26.7 65 18.3 60 60 S 15 24 29.86 1011 10 16.0934 N/A
1:52 pm 13:52 Mostly Sunny 81 27.2 67 19.4 62 62 SSW 12 19 29.85 1011 10 16.0934 N/A
2:52 pm 14:52 Sunny 83 28.3 68 20 61 61 SW 10 17 29.84 1011 10 16.0934 N/A
3:52 pm 15:52 Partly Cloudy 84 28.9 67 19.4 57 57 SW 10 17 29.83 1010 10 16.0934 N/A
4:52 pm 16:52 Mostly Cloudy 86 30 68 20 55 55 W 9 15 29.82 1010 10 16.0934 N/A
5:52 pm 17:52 Mostly Cloudy 84 28.9 69 20.6 61 61 WSW 6 9 29.83 1010 10 16.0934 N/A
6:11 pm 18:11 Mostly Cloudy 82 28 68 20 62 62 WSW 6 9 29.83 1010 10 16.0934 N/A
6:22 pm 18:22 Mostly Cloudy with Thunderstorms 82 28 70 21 66 66 VRB 3 6 29.8 1009 10 16.0934 N/A
6:31 pm 18:31 Mostly Cloudy with Thunderstorms 75 24 66 19 74 74 N 17 28 29.85 1011 10 16.0934 N/A
6:43 pm 18:43 Mostly Cloudy with Thunderstorms 73 23 64 18 74 74 NE 12 19 29.83 1010 10 16.0934 N/A
6:52 pm 18:52 Mostly Cloudy with Thunderstorms 73 22.8 64 17.8 74 74 N 18 30 29.85 1011 10 16.0934 N/A
7:01 pm 19:01 Cloudy 72 22 64 18 78 78 VRB 3 6 29.85 1011 10 16.0934 N/A
7:52 pm 19:52 Mostly Cloudy 73 22.8 66 18.9 79 79 E 5 7 29.84 1011 10 16.0934 N/A
8:52 pm 20:52 Mostly Cloudy 71 21.7 66 18.9 84 84 NE 7 11 29.85 1011 10 16.0934 N/A
9:52 pm 21:52 Mostly Cloudy 69 20.6 66 18.9 90 90 S 3 6 29.86 1011 10 16.0934 N/A
10:18 pm 22:18 Mostly Cloudy 70 21 66 19 88 88 S 5 7 29.88 1012 10 16.0934 N/A
10:26 pm 22:26 Mostly Cloudy 70 21 66 19 88 88 S 5 7 29.88 1012 10 16.0934 N/A
10:52 pm 22:52 Partly Cloudy 69 20.6 66 18.9 90 90 S 5 7 29.88 1012 10 16.0934 N/A
11:52 pm 23:52 Cloudy 70 21.1 66 18.9 87 87 S 3 6 29.9 1012 10 16.0934 N/A

Powered by AerisWeather